This demonstration page uses our WeatherBlox Daily Observations layout. Learn more.

Left ArrowRight Arrow

Hourly Observations for October 20, 2015

Temp ( °F °C ) Dew Point ( °F °C ) Humidity (%) Winds ( mph kmh ) Pressure ( in mb ) Visibility ( mi km ) Precip ( " mm )
12:51 am 00:51 Clear 63 17.2 50 10 63 63 ESE 6 9 29.76 1008 10 16 0.00 0.00
1:51 am 01:51 Clear 65 18.3 48 8.9 54 54 E 7 11 29.76 1008 10 16 0.00 0.00
2:51 am 02:51 Clear 65 18.3 48 8.9 54 54 ESE 8 13 29.75 1007 10 16 0.00 0.00
3:51 am 03:51 Clear 68 20 50 10 53 53 E 10 17 29.73 1007 10 16 0.00 0.00
4:51 am 04:51 Clear 67 19.4 51 10.6 57 57 E 9 15 29.74 1007 10 16 0.00 0.00
5:51 am 05:51 Partly Cloudy 63 17.2 52 11.1 68 68 E 7 11 29.76 1008 10 16 0.00 0.00
6:51 am 06:51 Sunny 64 17.8 53 11.7 68 68 E 9 15 29.76 1008 10 16 0.00 0.00
7:51 am 07:51 Mostly Sunny 66 18.9 53 11.7 63 63 E 8 13 29.79 1009 10 16 0.00 0.00
8:37 am 08:37 Partly Cloudy with Thunderstorms 67 19.4 55 12.8 66 66 ESE 6 9 29.80 1009 10 16 0.00 0.03
8:51 am 08:51 Partly Cloudy with Nearby Thunderstorms 67 19.4 55 12.8 66 66 E 5 7 29.79 1009 10 16 0.00 0.03
9:05 am 09:05 Mostly Sunny 71 21.7 54 12.2 55 55 E 10 17 29.77 1008 10 16 0.00 0.00
9:48 am 09:48 Mostly Cloudy with Nearby Thunderstorms 64 18 61 16 88 88 E 9 15 29.83 1010 10 16 0.02 0.51
9:51 am 09:51 Mostly Cloudy with Nearby Thunderstorms 65 18.3 59 15 81 81 ENE 6 9 29.79 1009 9 14 0.02 0.51
9:59 am 09:59 Mostly Cloudy with Thunderstorms 67 19.4 61 16.1 81 81 NNE 5 7 29.80 1009 10 16 0.01 0.25
10:19 am 10:19 Mostly Cloudy 68 20 57 13.9 68 68 N 6 9 29.77 1008 10 16 0.01 0.25
10:37 am 10:37 Mostly Cloudy with Nearby Thunderstorms 74 23.3 58 14.4 57 57 N 7 11 29.74 1007 10 16 0.01 0.25
10:46 am 10:46 Partly Cloudy with Thunderstorms 75 24 57 14 54 54 NE 6 9 29.68 1005 10 16 0.01 0.25
10:51 am 10:51 Partly Cloudy with Thunderstorms 76 24.4 57 13.9 52 52 VRB 5 7 29.74 1007 10 16 0.01 0.25
11:05 am 11:05 Sunny with Nearby Thunderstorms 75 23.9 57 13.9 54 54 ESE 13 20 29.71 1006 10 16 0.00 0.00
11:51 am 11:51 undefined 76 24.4 56 13.3 50 50 ESE 10 17 29.71 1006 10 16 0.00 0.00
12:51 pm 12:51 Sunny 82 27.8 44 6.7 26 26 SSW 15 24 29.67 1005 10 16 0.00 0.00
1:51 pm 13:51 Sunny 82 27.8 44 6.7 26 26 S 17 28 29.65 1004 10 16 0.00 0.00
2:51 pm 14:51 Sunny 79 26.1 47 8.3 32 32 NNW 8 13 29.65 1004 10 16 0.00 0.00
3:51 pm 15:51 Sunny 78 25.6 51 10.6 39 39 NW 10 17 29.64 1004 10 16 0.00 0.00
4:51 pm 16:51 Sunny 75 23.9 44 6.7 33 33 W 7 11 29.66 1004 10 16 0.00 0.00
5:40 pm 17:40 Sunny with Nearby Thunderstorms 70 21.1 51 10.6 51 51 WNW 6 9 29.65 1004 10 16 0.00 0.00
5:51 pm 17:51 Clear with Nearby Thunderstorms 69 20.6 51 10.6 53 53 WNW 10 17 29.69 1006 10 16 0.00 0.00
6:03 pm 18:03 Clear 69 20.6 50 10 51 51 NW 21 33 29.65 1004 10 16 0.00 0.00
6:51 pm 18:51 Mostly Clear 67 19.4 51 10.6 57 57 WNW 13 20 29.72 1007 10 16 0.00 0.00
7:51 pm 19:51 Partly Cloudy 63 17.2 52 11.1 68 68 WNW 13 20 29.75 1007 10 16 0.00 0.00
8:51 pm 20:51 Mostly Clear 63 17.2 51 10.6 65 65 WNW 15 24 29.77 1008 10 16 0.00 0.00
9:51 pm 21:51 Mostly Cloudy 62 16.7 50 10 65 65 WNW 12 19 29.77 1008 10 16 0.00 0.00
10:51 pm 22:51 Partly Cloudy 61 16.1 51 10.6 70 70 WNW 8 13 29.76 1008 10 16 0.00 0.00
11:51 pm 23:51 Mostly Cloudy with Light Rain 59 15 52 11.1 78 78 WNW 14 22 29.77 1008 10 16 0.02 0.51

Powered by AerisWeather